This is the latest recevied weather packets stored in our database for station/object WK7G. If no packets are shown the sender has not sent any weather packets the latest 1 day(s).
| Time | Temp. | Humidity | Pressure | Rain* | Wind** | Luminosity | Snow |
|---|---|---|---|---|---|---|---|
| 1778018007 | 12.78° C | 31% | 1003.7 hPa | 0 mm | 5.81 m/s, 336° | 637 W/m² | - |
| 1778017705 | 12.78° C | 32% | 1003.8 hPa | 0 mm | 3.13 m/s, 0° | 714 W/m² | - |
| 1778017402 | 12.78° C | 31% | 1003.4 hPa | 0 mm | 5.81 m/s, 318° | 645 W/m² | - |
| 1778017099 | 13.33° C | 30% | 1003.6 hPa | 0 mm | 4.92 m/s, 338° | 650 W/m² | - |
| 1778016797 | 12.22° C | 30% | 1003.7 hPa | 0 mm | 5.81 m/s, 312° | 643 W/m² | - |
| 1778016493 | 13.33° C | 33% | 1003.4 hPa | 0 mm | 4.92 m/s, 9° | 657 W/m² | - |
| 1778016190 | 13.33° C | 34% | 1003.4 hPa | 0 mm | 4.47 m/s, 323° | 674 W/m² | - |
| 1778015886 | 12.78° C | 32% | 1003.4 hPa | 0 mm | 4.47 m/s, 294° | 179 W/m² | - |
| 1778015584 | 12.22° C | 33% | 1003.4 hPa | 0 mm | 8.05 m/s, 333° | 715 W/m² | - |
| 1778015280 | 13.33° C | 32% | 1003.6 hPa | 0 mm | 5.81 m/s, 339° | 688 W/m² | - |
| 1778014977 | 12.78° C | 34% | 1003.6 hPa | 0 mm | 5.36 m/s, 275° | 697 W/m² | - |
| 1778014674 | 13.33° C | 32% | 1003.7 hPa | 0 mm | 5.81 m/s, 318° | 671 W/m² | - |
| 1778014373 | 12.78° C | 31% | 1003.7 hPa | 0 mm | 5.36 m/s, 304° | 666 W/m² | - |
| 1778014069 | 13.33° C | 29% | 1003.7 hPa | 0 mm | 5.81 m/s, 282° | 693 W/m² | - |
| 1778013767 | 12.22° C | 31% | 1003.4 hPa | 0 mm | 3.58 m/s, 328° | 723 W/m² | - |
| 1778013464 | 13.33° C | 32% | 1003.6 hPa | 0 mm | 3.13 m/s, 299° | 724 W/m² | - |
| 1778013161 | 13.33° C | 34% | 1003.8 hPa | 0 mm | 2.68 m/s, 323° | 742 W/m² | - |
| 1778012856 | 12.78° C | 32% | 1003.7 hPa | 0 mm | 3.13 m/s, 322° | 711 W/m² | - |
| 1778012552 | 12.22° C | 33% | 1003.9 hPa | 0 mm | 2.24 m/s, 330° | 726 W/m² | - |
| 1778012249 | 12.22° C | 32% | 1003.9 hPa | 0 mm | 3.13 m/s, 3° | 746 W/m² | - |
| 1778011947 | 11.67° C | 32% | 1003.8 hPa | 0 mm | 1.79 m/s, 279° | 730 W/m² | - |
| 1778011645 | 12.22° C | 34% | 1003.9 hPa | 0 mm | 2.68 m/s, 343° | 125 W/m² | - |
| 1778011342 | 12.78° C | 32% | 1003.9 hPa | 0 mm | 4.47 m/s, 308° | 789 W/m² | - |
| 1778011037 | 12.78° C | 34% | 1003.7 hPa | 0 mm | 3.13 m/s, 237° | 773 W/m² | - |
| 1778010735 | 12.22° C | 33% | 1003.9 hPa | 0 mm | 3.13 m/s, 317° | 783 W/m² | - |
* Rain latest hour (hover to see other rain measurements)
** Current wind speed in m/s (hover to see current wind gust speed)